Weather Roundup
Issued by NWS Corpus Christi, TX

Home | Current Version | Previous Version | Text Only | Print | Product List | Glossary On
Versions: 1 2 3 4 5 6 7 8 9 10 11 12 13 14 15 16 17 18 19 20 21 22 23 24 25 26 27 28 29 30 31 32 33 34 35 36 37 38 39 40 41 42 43 44 45 46 47 48 49 50
000
ASUS44 KCRP 201410
HRRCRP

SOUTH TEXAS REGIONAL WEATHER ROUNDUP
NATIONAL WEATHER SERVICE CORPUS CHRISTI TX
900 AM CDT SAT SEP 20 2014


TXZ229>244-201500-
...CORPUS CHRISTI AREA OBSERVATIONS...

CITY           SKY/WX    TMP DP  RH WIND       PRES   REMARKS
CORPUS CHRISTI MOSUNNY   82  77  84 NE10      29.90R HX  90
NAS CORPUS CHR MOSUNNY   82  78  88 E8        29.89R HX  91
ROCKPORT       SUNNY     78  75  90 NE10      29.91R
KINGSVILLE NAS PTSUNNY   80  77  90 NE7       29.90R
ALICE          PTSUNNY   79  77  94 NE6       29.90R
FALFURRIAS     CLOUDY   N/A N/A N/A NE5       29.89R
$$

...VICTORIA AREA OBSERVATIONS...

CITY           SKY/WX    TMP DP  RH WIND       PRES   REMARKS
VICTORIA       PTSUNNY   78  76  93 NE8       29.93S
BEEVILLE       CLOUDY    76  76 100 MISG      29.93R
PLEASANTON     CLOUDY    77  74  88 E5        29.94R
SAN ANTONIO    CLOUDY    77  73  87 E6        29.96R
$$

...LAREDO AREA OBSERVATIONS...

CITY           SKY/WX    TMP DP  RH WIND       PRES   REMARKS
LAREDO         SUNNY     79  79 100 NE7       29.93R
DEL RIO        CLOUDY    78  73  84 SE8       29.93R
MCALLEN        PTSUNNY   81  78  91 E6        29.87R
HEBBRONVILLE     N/A     76  75  95 E5        29.92R FOG
$$

...OTHER TEXAS OBSERVATIONS...

CITY           SKY/WX    TMP DP  RH WIND       PRES   REMARKS
BROWNSVILLE    PTSUNNY   81  75  83 S6        29.88R
HOUSTON        MOSUNNY   77  73  87 E9        29.96S
COL. STATION   CLOUDY    76  73  91 E8        29.98R
AUSTIN         CLOUDY    75  73  93 E6        29.97R
WACO           CLOUDY    75  72  90 E5        29.99S
FORT WORTH     PTSUNNY   77  70  79 SE8       30.00S
WICHITA FALLS  SUNNY     74  70  87 SE12      30.00R
LUBBOCK        CLOUDY    69  67  93 SE5       30.04R
EL PASO        MOSUNNY   69  64  84 N5        30.05R
$$

...MARINE OBSERVATIONS...

STATION/POSITION TIME  SKY/WX   TEMP    WIND        PRES    VSBY  WAVE   SWELL
                                AIR SEA DIR/SP/G                  HT/PER HT/PER
                 (UTC)          (F)     (DEG/KT/KT) (MB)    (MI)  (FT/S) (FT/S)
PORT ARANSAS     1400            82 84   80/  9/ 10 1012.9R
BUOY 90 E PORT A 1400            83 85   60/  6/  8 1012.7R         2/ 4   2/ 4
BUOY 45 SE BAFFI 1400            83 84  100/  4/  6 1011.5R         3/ 6   3/ 6
BUOY 200 E PT IS 1400            81 85  170/ 10/ 10 1012.1R         2/ 5   2/ 5
BUOY 15 E GALVES 1400            81 83   70/ 16/ 19 1012.9R         4/ 6
$$



USA.gov is the U.S. government's official web portal to all federal, state and local government web resources and services.